Marshalltown, IA

12:14 AM CDT on August 23, 2017 (GMT -0500)
Marshalltown Municipal

Weather History for KMIW - December, 2014

Change the Weather History Date:

Saturday, December 27, 2014

  Actual Average Record
Temperature  
Mean Temperature 24 °F 20 °F  
Max Temperature 34 °F 28 °F 50 °F (2003)
Min Temperature 14 °F 12 °F -6 °F (2000)
Degree Days  
Heating Degree Days 41 45  
Month to date heating degree days 924 1132  
Since 1 July heating degree days 2610 2628  
Cooling Degree Days 0 0  
Month to date cooling degree days 0 0  
Year to date cooling degree days 651 728  
Moisture  
Dew Point 26 °F    
Average Humidity 87    
Maximum Humidity 100    
Minimum Humidity 74    
Precipitation  
Precipitation 0.04 in 0.02 in 0.26 in (2008)
Month to date precipitation 1.25 0.90  
Sea Level Pressure  
Sea Level Pressure 30.05 in    
Wind  
Wind Speed 13 mph (West)    
Max Wind Speed 23 mph    
Max Gust Speed 27 mph    
Visibility 7 miles    
Events Rain , Snow    
T = Trace of Precipitation, MM = Missing Value Source: NWS Daily Summary

Daily Weather History Graph

Daily Weather History Graph

Search for Another Location

Airport or City:

Trip Planner

Search our weather history database for the weather conditions in past years. The results will help you decide how hot, cold, wet, or windy it might be!

Date:

Astronomy

Dec. 27, 2014 Rise Set
Actual Time 7:39 AM CST 4:46 PM CST
Civil Twilight 7:07 AM CST 5:18 PM CST
Nautical Twilight 6:32 AM CST 5:53 PM CST
Astronomical Twilight 5:58 AM CST 6:27 PM CST
Moon 11:20 AM CST (12/27) 11:44 PM CST (12/27)
Length of Visible Light 10h 11m
Length of Day
9h 07m
Waxing Crescent, 38% of the Moon is Illuminated
Dec 27
Waxing Crescent
Dec 28
First Quarter
Jan 4
Full
Jan 13
Last Quarter
Jan 20
New

Hourly Weather History & Observations

Time (CST) Temp. Windchill Dew Point Humidity Pressure Visibility Wind Dir Wind Speed Gust Speed Precip Events Conditions
12:05 AM 34.0 °F - 33.1 °F 96% 29.93 in 3.0 mi Calm Calm - N/A   Overcast
12:20 AM 34.0 °F - 33.1 °F 96% 29.93 in 3.0 mi Calm Calm - N/A   Overcast
12:37 AM 34.0 °F - 32.0 °F 92% 29.92 in 4.0 mi Calm Calm - N/A   Overcast
12:44 AM 34.0 °F - 32.0 °F 92% 29.91 in 4.0 mi Calm Calm - N/A   Overcast
12:53 AM 34.0 °F - 33.1 °F 96% 29.94 in 4.0 mi Calm Calm - N/A   Overcast
1:26 AM 33.1 °F 28.7 °F 32.0 °F 96% 29.91 in 4.0 mi West 4.6 mph - N/A   Overcast
1:45 AM 33.1 °F - 33.1 °F 100% 29.90 in 2.5 mi Calm Calm - N/A   Overcast
1:50 AM 33.8 °F - 33.8 °F 100% 29.90 in 3.0 mi Calm Calm - N/A   Overcast
1:53 AM 33.1 °F - 33.1 °F 100% 29.93 in 3.0 mi Calm Calm - 0.00 in Rain Light Rain
2:31 AM 33.1 °F 26.9 °F 32.0 °F 96% 29.92 in 3.0 mi WSW 6.9 mph - 0.00 in Rain Light Rain
2:39 AM 33.1 °F 26.9 °F 32.0 °F 96% 29.92 in 2.0 mi SW 6.9 mph - 0.01 in Snow Light Snow
2:50 AM 33.8 °F 27.7 °F 32.0 °F 93% 29.92 in 1.2 mi WSW 6.9 mph - 0.02 in Snow Light Snow
2:53 AM 32.0 °F 24.8 °F 32.0 °F 100% 29.95 in 1.2 mi WSW 8.1 mph - 0.02 in Snow Light Snow
3:18 AM 32.0 °F 23.6 °F 32.0 °F 100% 29.92 in 1.2 mi WSW 10.4 mph - 0.01 in Snow Light Snow
3:40 AM 33.1 °F 24.4 °F 32.0 °F 96% 29.93 in 2.5 mi WSW 11.5 mph - 0.02 in   Overcast
3:48 AM 33.8 °F 25.3 °F 32.0 °F 93% 29.93 in 3.0 mi WSW 11.5 mph - 0.02 in   Overcast
3:53 AM 33.1 °F 23.9 °F 32.0 °F 96% 29.96 in 4.0 mi West 12.7 mph - 0.02 in   Overcast
4:15 AM 32.0 °F 22.1 °F 32.0 °F 100% 29.93 in 1.8 mi West 13.8 mph - N/A   Overcast
4:33 AM 32.0 °F 21.6 °F 30.9 °F 96% 29.93 in 2.5 mi West 15.0 mph - N/A   Overcast
4:43 AM 32.0 °F 21.2 °F 30.9 °F 96% 29.94 in 4.0 mi West 16.1 mph - N/A   Overcast
4:53 AM 32.0 °F 20.8 °F 30.9 °F 96% 29.98 in 6.0 mi WNW 17.3 mph - N/A   Overcast
5:08 AM 32.0 °F 21.2 °F 30.0 °F 92% 29.95 in 7.0 mi WNW 16.1 mph - N/A   Overcast
5:53 AM 30.9 °F 19.4 °F 28.9 °F 92% 29.99 in 9.0 mi WNW 17.3 mph - N/A   Overcast
6:31 AM 30.0 °F 17.2 °F 27.0 °F 88% 30.00 in 10.0 mi WNW 20.7 mph - N/A   Overcast
6:53 AM 28.9 °F 15.4 °F 26.1 °F 89% 30.04 in 10.0 mi WNW 21.9 mph - N/A   Overcast
7:53 AM 28.0 °F 16.1 °F 25.0 °F 88% 30.08 in 10.0 mi WNW 16.1 mph 26.5 mph N/A   Overcast
8:53 AM 27.0 °F 13.9 °F 24.1 °F 89% 30.12 in 10.0 mi WNW 18.4 mph - N/A   Overcast
9:53 AM 27.0 °F 13.9 °F 23.0 °F 85% 30.15 in 10.0 mi NW 18.4 mph - N/A   Overcast
10:53 AM 27.0 °F 15.2 °F 24.1 °F 89% 30.17 in 10.0 mi WNW 15.0 mph - N/A   Overcast
11:53 AM 26.1 °F 12.7 °F 21.9 °F 84% 30.16 in 10.0 mi WNW 18.4 mph - N/A   Overcast
12:53 PM 26.1 °F 12.7 °F 21.9 °F 84% 30.17 in 10.0 mi WNW 18.4 mph - N/A   Overcast
1:53 PM 26.1 °F 13.6 °F 21.0 °F 81% 30.17 in 10.0 mi WNW 16.1 mph - N/A   Overcast
2:30 PM 27.0 °F 14.7 °F 21.0 °F 78% 30.14 in 10.0 mi WNW 16.1 mph - N/A   Partly Cloudy
2:53 PM 26.1 °F 14.0 °F 19.9 °F 78% 30.18 in 10.0 mi WNW 15.0 mph - N/A   Partly Cloudy
3:15 PM 26.1 °F 15.0 °F 21.0 °F 81% 30.16 in 10.0 mi WNW 12.7 mph - N/A   Mostly Cloudy
3:53 PM 26.1 °F 16.2 °F 19.9 °F 78% 30.20 in 10.0 mi WNW 10.4 mph - N/A   Mostly Cloudy
4:27 PM 25.0 °F 12.2 °F 19.0 °F 78% 30.17 in 10.0 mi WNW 16.1 mph - N/A   Scattered Clouds
4:53 PM 24.1 °F 11.5 °F 18.0 °F 77% 30.22 in 10.0 mi WNW 15.0 mph - N/A   Clear
5:53 PM 21.0 °F 9.3 °F 15.1 °F 78% 30.23 in 10.0 mi WNW 11.5 mph - N/A   Clear
6:53 PM 19.9 °F 9.3 °F 15.1 °F 81% 30.23 in 10.0 mi WNW 9.2 mph - N/A   Clear
7:53 PM 19.9 °F 8.6 °F 16.0 °F 85% 30.24 in 10.0 mi West 10.4 mph - N/A   Clear
8:53 PM 19.0 °F 7.5 °F 16.0 °F 88% 30.24 in 10.0 mi WNW 10.4 mph - N/A   Clear
9:53 PM 18.0 °F 8.7 °F 14.0 °F 84% 30.23 in 10.0 mi West 6.9 mph - N/A   Clear
10:53 PM 16.0 °F 6.3 °F 12.9 °F 88% 30.23 in 10.0 mi WSW 6.9 mph - N/A   Clear
11:53 PM 17.1 °F 6.6 °F 12.9 °F 84% 30.23 in 10.0 mi West 8.1 mph - N/A   Clear